User: anonymous   Login
Location: Unspecified
(0.0000°N, 0.0000°E)
Time: 21:50:36
(UTC+00:00)
Language:

LISHUI 1-01 - Orbit

View from above orbital plane
View from above orbital plane
View from above satellite
View from above satellite

Ground track
Ground track

The orbit data is extracted from the following two-line orbital elements,

1 41845U 16066E   18146.55374217  .00005884  00000-0  83038-3 0  9995
2 41845  98.7497 182.7540 0310572 285.8490  70.8698 14.49640417 80948
Epoch (UTC): 26 May 2018 13:17:23
Eccentricity: 0.0310572
inclination: 98.7497°
perigee height: 506 km
apogee height: 947 km
right ascension of ascending node: 182.7540°
argument of perigee: 285.8490°
revolutions per day: 14.49640417
mean anomaly at epoch: 70.8698°
orbit number at epoch: 8094

The dashed part of the orbit path shows where the satellite is in the earth's shadow,  

DLR